GW0980 Weather Reports


time (UTC)temp
F
wind
direction
speed
knots
gust
knots
rain 1hr
in
rain 24hr
in
rain mn
in
humidity
%
barometer
mb
20260505153048 54 0 0.0 0.0 0.00 0.00 0.00 83 1016.5
20260505151545 53 0 0.0 0.0 0.00 0.00 0.00 84 1016.3
20260505124549 53 0 0.0 0.9 0.00 0.00 0.00 85 1015.5
20260505123045 53 0 0.0 0.9 0.00 0.00 0.00 85 1015.3
20260505121543 53 298 0.0 2.6 0.00 0.00 0.00 84 1015.2
20260505120048 53 295 1.7 3.5 0.00 0.00 0.00 84 1015.1
20260505114542 53 282 1.7 2.6 0.00 0.00 0.00 84 1015.2
20260505113042 53 278 0.9 5.2 0.00 0.00 0.00 84 1015.2
20260505111542 53 283 3.5 7.0 0.00 0.00 0.00 84 1015.1
20260505101544 53 277 4.3 9.6 0.00 0.00 0.00 84 1014.6
20260505100043 53 272 4.3 10.4 0.00 0.00 0.00 84 1014.6
20260505094540 53 273 4.3 9.6 0.00 0.00 0.00 84 1014.5
20260505093037 53 276 2.6 7.0 0.00 0.00 0.00 84 1014.6
20260505091539 53 266 4.3 9.6 0.00 0.00 0.00 84 1014.5
20260505090538 53 284 4.3 9.6 0.00 0.00 0.00 84 1014.5
20260505084548 53 271 3.5 9.6 0.00 0.00 0.00 84 1014.4
20260505083041 52 278 4.3 9.6 0.00 0.00 0.00 85 1014.2
20260505081544 52 293 2.6 7.8 0.00 0.00 0.00 85 1014.2
20260505080052 53 268 2.6 6.1 0.00 0.00 0.00 85 1014.2
20260505074544 53 251 3.5 9.6 0.00 0.00 0.00 85 1014.2
20260505073046 53 266 6.1 12.2 0.00 0.00 0.00 85 1013.8
20260505071546 53 265 5.2 11.3 0.00 0.00 0.00 85 1013.8
20260505070052 53 267 5.2 9.6 0.00 0.00 0.00 86 1013.7
20260505064544 53 276 7.0 11.3 0.00 0.00 0.00 86 1013.7
20260505063039 53 271 4.3 7.8 0.00 0.00 0.00 86 1013.8
20260505061541 53 276 4.3 10.4 0.00 0.00 0.00 86 1013.7
20260505060044 53 285 6.1 13.0 0.00 0.00 0.00 86 1013.7
20260505054542 53 276 5.2 12.2 0.00 0.00 0.00 86 1013.6
20260505053055 53 279 5.2 10.4 0.00 0.00 0.00 86 1013.7
20260505051542 53 276 6.1 13.9 0.00 0.00 0.00 86 1013.8
20260505041554 53 285 7.8 16.5 0.00 0.00 0.00 84 1013.4
20260505040053 54 219 6.1 11.3 0.00 0.00 0.00 82 1013.3
20260505034538 54 278 6.1 13.0 0.00 0.00 0.00 81 1013.1
20260505033039 54 317 7.8 13.9 0.00 0.00 0.00 80 1012.6
20260505031543 55 290 8.7 16.5 0.00 0.00 0.00 80 1012.5
20260505030037 56 281 8.7 19.1 0.00 0.00 0.00 78 1012.3
20260505024554 56 278 9.6 16.5 0.00 0.00 0.00 76 1012.4
20260505023044 57 297 8.7 19.1 0.00 0.00 0.00 75 1012.1
20260505021541 58 340 8.7 16.5 0.00 0.00 0.00 74 1012.2
20260505020038 59 275 7.8 15.6 0.00 0.00 0.00 73 1012.1
20260505014600 59 285 10.4 18.2 0.00 0.00 0.00 72 1012.1
20260505013046 60 281 7.0 16.5 0.00 0.00 0.00 71 1012.1
20260505011554 61 266 7.8 15.6 0.00 0.00 0.00 69 1012.1
20260505010043 62 269 7.8 16.5 0.00 0.00 0.00 69 1011.9
20260505004541 62 275 9.6 17.4 0.00 0.00 0.00 69 1012.0
20260505003040 63 262 9.6 17.4 0.00 0.00 0.00 67 1012.3
20260505001538 64 281 10.4 17.4 0.00 0.00 0.00 66 1012.2
20260505000048 64 268 8.7 15.6 0.00 0.00 0.00 66 1012.2
20260504234549 66 279 7.8 19.1 0.00 0.00 0.00 64 1012.3
20260504233101 66 291 8.7 11.3 0.00 0.00 0.00 63 1012.2
20260504231544 66 275 7.0 13.9 0.00 0.00 0.00 64 1012.3
20260504230041 67 283 6.1 14.8 0.00 0.00 0.00 62 1012.3
20260504224540 66 284 7.0 12.2 0.00 0.00 0.00 64 1012.3
20260504223054 66 316 7.8 15.6 0.00 0.00 0.00 64 1012.5
20260504221543 66 271 7.0 13.9 0.00 0.00 0.00 65 1012.5
20260504220043 66 272 7.8 11.3 0.00 0.00 0.00 64 1012.7
20260504214537 67 323 7.0 14.8 0.00 0.00 0.00 64 1012.5
20260504213050 67 269 4.3 10.4 0.00 0.00 0.00 64 1012.8
20260504211545 66 265 4.3 8.7 0.00 0.00 0.00 66 1012.9
20260504210040 66 293 7.0 13.9 0.00 0.00 0.00 65 1013.0
20260504204547 66 271 6.1 13.9 0.00 0.00 0.00 65 1013.1
20260504203058 67 309 6.1 11.3 0.00 0.00 0.00 65 1013.2
20260504201542 67 262 4.3 8.7 0.00 0.00 0.00 64 1013.2
20260504200038 67 302 3.5 6.1 0.00 0.00 0.00 64 1013.3
20260504194537 67 283 3.5 7.0 0.00 0.00 0.00 63 1013.2
20260504193044 66 278 2.6 9.6 0.00 0.00 0.00 64 1013.2
20260504191549 65 236 2.6 7.0 0.00 0.00 0.00 64 1013.2
20260504190047 65 288 2.6 7.8 0.00 0.00 0.00 66 1013.4
20260504184543 64 267 1.7 5.2 0.00 0.00 0.00 67 1013.7
20260504183040 63 283 2.6 5.2 0.00 0.00 0.00 68 1013.8
20260504181544 62 283 1.7 7.0 0.00 0.00 0.00 71 1013.7
20260504180037 61 259 2.6 4.3 0.00 0.00 0.00 71 1013.6
20260504174545 60 312 3.5 7.8 0.00 0.00 0.00 73 1013.8
20260504173038 59 301 2.6 5.2 0.00 0.00 0.00 75 1013.9
20260504171547 58 278 4.3 7.0 0.00 0.00 0.00 76 1013.9